Big Rapids, MI

9:41 PM EDT on October 19, 2017 (GMT -0400)
Roben-Hood

Weather History for KRQB - February, 2012

Change the Weather History Date:

Thursday, February 23, 2012

  Actual Average Record
Temperature  
Mean Temperature 27 °F -  
Max Temperature 37 °F 35 °F 60 °F (1984)
Min Temperature 17 °F 16 °F -23 °F (2015)
Degree Days  
Heating Degree Days 38    
Moisture  
Dew Point 24 °F    
Average Humidity 80    
Maximum Humidity 100    
Minimum Humidity 54    
Precipitation  
Precipitation 0.00 in - - ()
Sea Level Pressure  
Sea Level Pressure 29.51 in    
Wind  
Wind Speed 2 mph (West)    
Max Wind Speed 6 mph    
Max Gust Speed -    
Visibility 10 miles    
Events      
Averages and records for this station are not official NWS values.
T = Trace of Precipitation, MM = Missing Value Source: NWS Daily Summary

Daily Weather History Graph

Daily Weather History Graph

Search for Another Location

Airport or City:

Trip Planner

Search our weather history database for the weather conditions in past years. The results will help you decide how hot, cold, wet, or windy it might be!

Date:

Astronomy

Feb. 23, 2012 Rise Set
Actual Time 7:29 AM EST 6:22 PM EST
Civil Twilight 7:00 AM EST 6:51 PM EST
Nautical Twilight 6:26 AM EST 7:24 PM EST
Astronomical Twilight 5:53 AM EST 7:57 PM EST
Moon 7:50 AM EST (2/23) 8:33 PM EST (2/23)
Length of Visible Light 11h 51m
Length of Day
10h 52m
Waxing Crescent, 3% of the Moon is Illuminated
Feb 23
Waxing Crescent
Feb 29
First Quarter
Mar 8
Full
Mar 14
Last Quarter
Mar 22
New

Hourly Weather History & Observations

Time (EST) Temp. Windchill Dew Point Humidity Pressure Visibility Wind Dir Wind Speed Gust Speed Precip Events Conditions
12:14 AM 32.2 °F 28.9 °F 30.9 °F 95% 29.37 in 10.0 mi West 3.5 mph - N/A   Overcast
12:34 AM 32.0 °F 27.5 °F 30.2 °F 93% 29.38 in 10.0 mi West 4.6 mph - N/A   Overcast
12:54 AM 31.1 °F 27.7 °F 30.6 °F 98% 29.38 in 10.0 mi West 3.5 mph - N/A   Overcast
1:14 AM 29.8 °F 24.9 °F 29.7 °F 99% 29.39 in 7.0 mi WNW 4.6 mph - N/A   Mostly Cloudy
1:34 AM 30.4 °F 25.6 °F 30.0 °F 99% 29.39 in 10.0 mi West 4.6 mph - N/A   Mostly Cloudy
1:54 AM 28.8 °F 23.7 °F 28.2 °F 98% 29.40 in 10.0 mi West 4.6 mph - N/A   Scattered Clouds
2:14 AM 26.6 °F 21.2 °F 26.4 °F 99% 29.41 in 10.0 mi West 4.6 mph - N/A   Clear
2:34 AM 26.1 °F 19.4 °F 26.1 °F 100% 29.42 in 10.0 mi WNW 5.8 mph - N/A   Clear
2:54 AM 25.7 °F 20.1 °F 25.5 °F 99% 29.42 in 10.0 mi West 4.6 mph - N/A   Clear
3:14 AM 26.1 °F - 25.5 °F 98% 29.43 in 10.0 mi Calm Calm - N/A   Clear
3:34 AM 24.4 °F 20.1 °F 23.7 °F 97% 29.43 in 10.0 mi WNW 3.5 mph - N/A   Clear
3:54 AM 23.9 °F 19.5 °F 23.9 °F 100% 29.43 in 10.0 mi West 3.5 mph - N/A   Clear
4:14 AM 24.4 °F - 23.5 °F 96% 29.44 in 10.0 mi Calm Calm - N/A   Clear
4:34 AM 21.7 °F - 21.6 °F 99% 29.44 in 10.0 mi Calm Calm - N/A   Clear
4:54 AM 22.5 °F - 22.5 °F 100% 29.45 in 10.0 mi Calm Calm - N/A   Clear
5:14 AM 21.7 °F - 21.7 °F 100% 29.46 in 10.0 mi Calm Calm - N/A   Clear
5:34 AM 21.0 °F - 21.0 °F 100% 29.47 in 10.0 mi Calm Calm - N/A   Clear
5:54 AM 19.9 °F - 19.8 °F 99% 29.47 in 10.0 mi Calm Calm - N/A   Clear
6:14 AM 20.1 °F - 20.1 °F 100% 29.48 in 10.0 mi Calm Calm - N/A   Clear
6:34 AM 20.3 °F - 20.3 °F 100% 29.49 in 10.0 mi Calm Calm - N/A   Clear
6:54 AM 19.9 °F - 19.9 °F 100% 29.49 in 10.0 mi Calm Calm - N/A   Clear
7:14 AM 19.0 °F - 19.0 °F 100% 29.50 in 10.0 mi Calm Calm - N/A   Clear
7:34 AM 17.8 °F - 17.8 °F 100% 29.51 in 10.0 mi Calm Calm - N/A   Clear
7:54 AM 18.5 °F - 18.5 °F 100% 29.52 in 10.0 mi Calm Calm - N/A   Clear
8:14 AM 20.7 °F - 20.7 °F 100% 29.52 in 7.0 mi Calm Calm - N/A   Clear
8:34 AM 23.0 °F - 23.0 °F 100% 29.52 in 7.0 mi Calm Calm - N/A   Clear
8:54 AM 25.3 °F - 25.3 °F 100% 29.53 in 7.0 mi Calm Calm - N/A   Clear
9:14 AM 27.9 °F - 26.8 °F 96% 29.54 in 10.0 mi Calm Calm - N/A   Clear
9:54 AM 31.8 °F - 27.0 °F 82% 29.56 in 10.0 mi Calm Calm - N/A   Clear
10:15 AM 33.6 °F - 26.6 °F 75% 29.57 in 10.0 mi Calm Calm - N/A   Clear
10:34 AM 33.8 °F - 23.0 °F 65% 29.56 in 10.0 mi Calm Calm - N/A   Scattered Clouds
10:54 AM 35.2 °F 32.4 °F 23.0 °F 61% 29.56 in 10.0 mi West 3.5 mph - N/A   Scattered Clouds
11:14 AM 34.9 °F 30.8 °F 23.5 °F 63% 29.56 in 10.0 mi WNW 4.6 mph - N/A   Scattered Clouds
11:34 AM 36.0 °F 32.1 °F 22.6 °F 58% 29.55 in 10.0 mi NW 4.6 mph - N/A   Clear
11:54 AM 35.6 °F 32.8 °F 22.1 °F 58% 29.54 in 10.0 mi NNW 3.5 mph - N/A   Clear
12:14 PM 35.6 °F 31.7 °F 22.1 °F 58% 29.55 in 10.0 mi North 4.6 mph - N/A   Clear
12:34 PM 36.5 °F 32.7 °F 23.2 °F 59% 29.55 in 10.0 mi NE 4.6 mph - N/A   Clear
12:54 PM 36.1 °F - 22.8 °F 58% 29.56 in 10.0 mi Calm Calm - N/A   Clear
1:14 PM 36.5 °F 31.8 °F 22.6 °F 57% 29.56 in 10.0 mi South 5.8 mph - N/A   Clear
1:34 PM 36.7 °F - 22.6 °F 57% 29.55 in 10.0 mi Calm Calm - N/A   Scattered Clouds
1:54 PM 37.4 °F 33.8 °F 23.2 °F 57% 29.55 in 10.0 mi SSE 4.6 mph - N/A   Clear
2:14 PM 37.4 °F - 22.3 °F 54% 29.55 in 10.0 mi Calm Calm - N/A   Clear
2:34 PM 37.6 °F 35.1 °F 22.1 °F 54% 29.55 in 10.0 mi SE 3.5 mph - N/A   Clear
2:55 PM 37.9 °F - 22.5 °F 54% 29.55 in 10.0 mi Calm Calm - N/A   Clear
3:14 PM 37.8 °F - 22.5 °F 54% 29.56 in 10.0 mi Calm Calm - N/A   Clear
3:34 PM 37.9 °F - 22.6 °F 54% 29.55 in 10.0 mi Calm Calm - N/A   Clear
3:55 PM 37.8 °F 33.3 °F 23.9 °F 57% 29.55 in 10.0 mi South 5.8 mph - N/A   Clear
4:14 PM 37.8 °F - 24.4 °F 59% 29.56 in 10.0 mi Calm Calm - N/A   Clear
4:34 PM 37.6 °F 34.0 °F 23.4 °F 57% 29.56 in 10.0 mi SE 4.6 mph - N/A   Clear
4:54 PM 37.6 °F 35.1 °F 24.1 °F 58% 29.57 in 10.0 mi SE 3.5 mph - N/A   Mostly Cloudy
5:15 PM 37.6 °F 34.0 °F 23.4 °F 57% 29.57 in 10.0 mi East 4.6 mph - N/A   Mostly Cloudy
5:34 PM 36.9 °F 32.2 °F 24.3 °F 60% 29.56 in 10.0 mi SE 5.8 mph - N/A   Scattered Clouds
5:54 PM 36.7 °F - 24.4 °F 61% 29.56 in 10.0 mi Calm Calm - N/A   Clear
6:14 PM 36.5 °F - 23.9 °F 60% 29.56 in 10.0 mi Calm Calm - N/A   Clear
6:34 PM 35.4 °F - 24.4 °F 64% 29.57 in 10.0 mi Calm Calm - N/A   Clear
6:54 PM 33.8 °F - 26.2 °F 74% 29.58 in 10.0 mi Calm Calm - N/A   Clear
7:14 PM 32.0 °F 28.7 °F 28.4 °F 87% 29.58 in 10.0 mi NNE 3.5 mph - N/A   Clear
7:34 PM 32.0 °F - 26.6 °F 80% 29.58 in 10.0 mi Calm Calm - N/A   Clear
7:54 PM 32.0 °F - 27.0 °F 82% 29.58 in 10.0 mi Calm Calm - N/A   Clear
8:14 PM 31.3 °F - 26.8 °F 83% 29.59 in 10.0 mi Calm Calm - N/A   Clear
8:35 PM 31.5 °F - 27.3 °F 85% 29.59 in 10.0 mi Calm Calm - N/A   Scattered Clouds
8:54 PM 31.5 °F - 27.9 °F 87% 29.58 in 10.0 mi Calm Calm - N/A   Mostly Cloudy
9:14 PM 33.8 °F 29.6 °F 25.7 °F 72% 29.57 in 10.0 mi East 4.6 mph - N/A   Mostly Cloudy
9:34 PM 33.8 °F 28.6 °F 26.1 °F 73% 29.55 in 10.0 mi East 5.8 mph - N/A   Overcast
9:54 PM 33.8 °F 30.8 °F 26.4 °F 74% 29.56 in 10.0 mi East 3.5 mph - N/A   Overcast
10:14 PM 33.4 °F 30.4 °F 25.7 °F 73% 29.55 in 10.0 mi East 3.5 mph - N/A   Overcast
10:35 PM 33.4 °F - 25.3 °F 72% 29.56 in 10.0 mi Calm Calm - N/A   Overcast
10:54 PM 33.4 °F - 25.0 °F 71% 29.56 in 10.0 mi Calm Calm - N/A   Overcast
11:14 PM 32.9 °F - 25.2 °F 73% 29.57 in 10.0 mi Calm Calm - N/A   Overcast
11:34 PM 32.0 °F 28.7 °F 26.6 °F 80% 29.56 in 10.0 mi North 3.5 mph - N/A   Overcast
11:54 PM 32.0 °F 28.7 °F 25.7 °F 78% 29.56 in 10.0 mi NE 3.5 mph - N/A   Overcast